FW9241 Weather Reports


time (UTC)temp
C
wind
direction
speed
KPH
gust
KPH
rain 1hr
cm
rain 24hr
cm
rain mn
cm
humidity
%
barometer
mb
20260502151603 6 320 1.6 6.4 0.00 0.51 0.51 84 1010.9
20260502123056 6 0 0.0 0.0 0.00 0.51 0.51 92 1011.0
20260502121558 7 0 0.0 0.0 0.00 0.51 0.51 93 1010.7
20260502120105 6 0 0.0 0.0 0.03 0.51 0.51 93 1010.8
20260502114558 6 0 0.0 1.6 0.08 0.51 0.51 93 1010.7
20260502113056 5 0 0.0 0.0 0.08 0.51 0.51 93 1010.7
20260502111606 5 0 0.0 0.0 0.10 0.51 0.51 93 1010.7
20260502110058 5 0 0.0 0.0 0.08 0.48 0.48 93 1011.0
20260502104556 5 0 0.0 0.0 0.18 0.43 0.43 93 1010.8
20260502103109 5 0 0.0 0.0 0.28 0.43 0.43 93 1010.5
20260502101617 5 0 0.0 0.0 0.25 0.41 0.41 93 1009.8
20260502070101 6 0 0.0 0.0 0.00 0.03 0.03 89 1010.3
20260502064601 6 0 0.0 0.0 0.00 0.03 0.03 89 1010.1
20260502063059 6 0 0.0 0.0 0.03 0.03 0.03 87 1010.6
20260502061555 6 0 0.0 0.0 0.03 0.03 0.03 88 1010.5
20260502060055 6 0 0.0 0.0 0.03 0.03 0.03 89 1010.5
20260502054603 6 0 0.0 0.0 0.03 0.03 0.03 88 1010.2
20260502053059 6 0 0.0 0.0 0.00 0.00 0.00 86 1010.4
20260502051556 6 0 0.0 0.0 0.00 0.00 0.00 83 1010.6
20260502050057 7 0 0.0 0.0 0.00 0.00 0.00 78 1011.1
20260502044555 7 0 0.0 0.0 0.00 0.00 0.00 77 1010.9
20260502043107 7 0 0.0 0.0 0.00 0.00 0.00 76 1010.8
20260502041556 7 0 0.0 0.0 0.00 0.00 0.00 75 1010.5
20260502040055 7 0 0.0 0.0 0.00 0.00 0.00 72 1010.6
20260502034556 7 0 0.0 0.0 0.00 0.00 0.00 70 1010.5
20260502033057 7 0 0.0 0.0 0.00 0.00 0.00 73 1010.7
20260502031556 8 0 0.0 0.0 0.00 0.00 0.00 70 1010.7
20260502030059 8 0 0.0 0.0 0.00 0.00 0.00 67 1010.7
20260502024555 8 0 0.0 0.0 0.00 0.00 0.00 70 1010.7
20260502023102 8 0 0.0 0.0 0.00 0.00 0.00 63 1010.8
20260502021557 9 40 0.0 0.0 0.00 0.00 0.00 60 1010.8
20260502020056 9 0 0.0 1.6 0.00 0.00 0.00 58 1010.9
20260502014554 9 0 0.0 0.0 0.00 0.00 0.00 63 1010.9
20260502013059 9 0 0.0 1.6 0.00 0.00 0.00 59 1010.8
20260502011557 10 0 0.0 1.6 0.00 0.00 0.00 56 1010.7
20260502010055 10 0 0.0 4.8 0.00 0.00 0.00 53 1010.7
20260502004609 10 337 0.0 1.6 0.00 0.00 0.00 52 1010.6
20260502003055 10 0 0.0 3.2 0.00 0.00 0.00 58 1010.3
20260502001554 10 0 0.0 0.0 0.00 0.00 0.00 61 1010.0
20260502000108 10 0 0.0 0.0 0.00 0.00 0.00 61 1009.7
20260501234557 11 0 0.0 0.0 0.00 0.00 0.00 58 1009.6
20260501233101 11 0 0.0 0.0 0.00 0.00 0.00 49 1009.4
20260501231555 12 0 0.0 0.0 0.00 0.00 0.00 48 1009.3
20260501230057 12 0 0.0 0.0 0.00 0.00 0.00 48 1009.2
20260501224556 12 0 0.0 1.6 0.00 0.00 0.00 44 1009.2
20260501223105 13 0 0.0 3.2 0.00 0.00 0.00 41 1009.1
20260501221556 13 238 0.0 1.6 0.00 0.00 0.00 42 1009.0
20260501220112 13 233 1.6 3.2 0.00 0.00 0.00 41 1008.9
20260501214555 13 287 0.0 6.4 0.00 0.00 0.00 40 1009.0
20260501213109 13 0 0.0 3.2 0.00 0.00 0.00 40 1008.9
20260501211553 13 257 1.6 3.2 0.00 0.00 0.00 42 1009.0
20260501210058 13 258 1.6 6.4 0.00 0.00 0.00 40 1009.0
20260501204554 13 317 1.6 4.8 0.00 0.00 0.00 40 1009.0
20260501203057 13 233 1.6 8.0 0.00 0.00 0.00 40 1008.9
20260501201558 13 330 1.6 6.4 0.00 0.00 0.00 40 1008.9
20260501200056 13 283 1.6 9.7 0.00 0.00 0.00 39 1009.0
20260501194558 13 333 1.6 6.4 0.00 0.00 0.00 41 1008.9
20260501193055 13 342 0.0 9.7 0.00 0.00 0.00 40 1008.9
20260501191555 13 309 1.6 4.8 0.00 0.00 0.00 40 1009.1
20260501190056 12 326 1.6 9.7 0.00 0.00 0.00 41 1009.2
20260501184555 12 309 1.6 4.8 0.00 0.00 0.00 41 1009.2
20260501183106 12 4 1.6 12.9 0.00 0.00 0.00 44 1009.7
20260501181556 12 238 3.2 11.3 0.00 0.00 0.00 42 1009.8
20260501180100 12 300 3.2 11.3 0.00 0.00 0.00 41 1009.8
20260501174641 12 24 3.2 11.3 0.00 0.00 0.00 42 1009.9
20260501173104 12 271 1.6 6.4 0.00 0.00 0.00 43 1009.9
20260501171557 11 347 3.2 11.3 0.00 0.00 0.00 45 1009.9
20260501164606 12 250 3.2 9.7 0.00 0.08 0.00 41 1009.8
20260501163104 12 262 3.2 12.9 0.00 0.08 0.00 43 1009.9
20260501161557 12 281 1.6 11.3 0.00 0.08 0.00 44 1009.9
20260501160101 11 279 3.2 11.3 0.00 0.08 0.00 43 1010.0
20260501154619 11 13 3.2 6.4 0.00 0.08 0.00 46 1010.2